{"data":{"norad_id":57347,"epoch":"2026-05-25T04:09:35.516736Z","epoch_age_seconds":59948,"freshness":"FRESH","line1":"1 57347U 23099V   26145.17332774  .00000068  00000+0  11972-4 0  9998","line2":"2 57347  43.0017 183.8708 0000873 266.4489  93.6263 15.27581313157733","mean_motion":15.27581313,"eccentricity":8.73e-5,"inclination_deg":43.0017,"raan_deg":183.8708,"arg_perigee_deg":266.4489,"mean_anomaly_deg":93.6263,"bstar":1.1972e-5,"rev_number":15773,"period_min":94.266667688674,"perigee_km":482.44618324516,"apogee_km":483.64414565108,"semimajor_km":6861.1821644481,"source":"CELESTRAK","updated_at":"2026-05-25T13:38:18.289602Z"}}